Time,TemperatureF,DewpointF,PressureIn,WindDirection,WindDirectionDegrees,WindSpeedMPH,WindSpeedGustMPH,Humidity,HourlyPrecipIn,Conditions,Clouds,dailyrainin,SoftwareType,DateUTC
2013-04-12 00:01:00,37.1,29.6,25.45,NNW,337,0.0,0.0,74,0.00,,,0.00,Wunderground v.1.15,2013-04-12 05:01:00,
2013-04-12 00:06:00,37.0,29.5,25.45,NNW,337,0.0,0.0,74,0.00,,,0.00,Wunderground v.1.15,2013-04-12 05:06:00,
2013-04-12 00:12:00,36.9,29.7,25.45,NNW,337,0.0,0.0,75,0.00,,,0.00,Wunderground v.1.15,2013-04-12 05:12:00,
2013-04-12 00:17:00,36.7,29.5,25.45,NNW,337,0.0,0.0,75,0.00,,,0.00,Wunderground v.1.15,2013-04-12 05:17:00,
2013-04-12 00:23:00,36.6,29.7,25.45,NNW,337,0.0,0.0,76,0.00,,,0.00,Wunderground v.1.15,2013-04-12 05:23:00,
2013-04-12 00:28:00,36.4,29.6,25.45,NNW,337,0.0,0.0,76,0.00,,,0.00,Wunderground v.1.15,2013-04-12 05:28:00,
2013-04-12 00:34:00,36.3,29.5,25.45,NNW,337,0.0,0.0,76,0.00,,,0.00,Wunderground v.1.15,2013-04-12 05:34:00,
2013-04-12 00:39:00,36.2,29.7,25.45,NNW,337,0.0,0.0,77,0.00,,,0.00,Wunderground v.1.15,2013-04-12 05:39:00,
2013-04-12 00:45:00,36.1,29.6,25.45,NNW,337,0.0,0.0,77,0.00,,,0.00,Wunderground v.1.15,2013-04-12 05:45:00,
2013-04-12 00:50:00,35.9,29.7,25.45,NNW,337,0.0,0.0,78,0.00,,,0.00,Wunderground v.1.15,2013-04-12 05:50:00,
2013-04-12 00:55:00,35.8,29.3,25.45,NNW,337,0.0,0.0,77,0.00,,,0.00,Wunderground v.1.15,2013-04-12 05:55:00,
2013-04-12 01:01:00,35.7,29.5,25.45,NNW,337,0.0,0.0,78,0.00,,,0.00,Wunderground v.1.15,2013-04-12 06:01:00,
2013-04-12 01:07:00,35.5,29.3,25.45,NNW,337,0.0,0.0,78,0.00,,,0.00,Wunderground v.1.15,2013-04-12 06:07:00,
2013-04-12 01:12:00,35.4,29.2,25.45,NNW,337,0.0,0.0,78,0.00,,,0.00,Wunderground v.1.15,2013-04-12 06:12:00,
2013-04-12 01:18:00,35.3,29.4,25.45,NNW,337,0.0,0.0,79,0.00,,,0.00,Wunderground v.1.15,2013-04-12 06:18:00,
2013-04-12 01:23:00,35.2,29.3,25.45,NNW,337,0.0,0.0,79,0.00,,,0.00,Wunderground v.1.15,2013-04-12 06:23:00,
2013-04-12 01:29:00,35.1,29.6,25.45,NNW,337,0.0,0.0,80,0.00,,,0.00,Wunderground v.1.15,2013-04-12 06:29:00,
2013-04-12 01:34:00,35.0,29.5,25.45,NNW,337,0.0,0.0,80,0.00,,,0.00,Wunderground v.1.15,2013-04-12 06:34:00,
2013-04-12 01:40:00,34.9,29.7,25.45,NNW,337,0.0,0.0,81,0.00,,,0.00,Wunderground v.1.15,2013-04-12 06:40:00,
2013-04-12 01:45:00,34.8,29.6,25.45,NNW,337,0.0,0.0,81,0.00,,,0.00,Wunderground v.1.15,2013-04-12 06:45:00,
2013-04-12 01:51:00,34.7,29.5,25.45,NNW,337,0.0,0.0,81,0.00,,,0.00,Wunderground v.1.15,2013-04-12 06:51:00,
2013-04-12 01:56:00,34.6,29.7,25.45,NNW,337,0.0,0.0,82,0.00,,,0.00,Wunderground v.1.15,2013-04-12 06:56:00,
2013-04-12 02:01:00,34.6,29.7,25.45,NNW,336,0.0,0.0,82,0.00,,,0.00,Wunderground v.1.15,2013-04-12 07:01:00,
2013-04-12 02:06:00,34.5,29.6,25.45,NNW,337,0.0,0.0,82,0.00,,,0.00,Wunderground v.1.15,2013-04-12 07:06:00,
2013-04-12 02:12:00,34.5,29.6,25.45,NNW,337,0.0,0.0,82,0.00,,,0.00,Wunderground v.1.15,2013-04-12 07:12:00,
2013-04-12 02:17:00,34.5,29.6,25.45,NNW,337,0.0,0.0,82,0.00,,,0.00,Wunderground v.1.15,2013-04-12 07:17:00,
2013-04-12 02:22:00,34.4,29.8,25.45,NNW,337,0.0,0.0,83,0.00,,,0.00,Wunderground v.1.15,2013-04-12 07:22:00,
2013-04-12 02:27:00,34.4,29.8,25.45,NNW,337,0.0,0.0,83,0.00,,,0.00,Wunderground v.1.15,2013-04-12 07:27:00,
2013-04-12 02:32:00,34.4,29.8,25.45,NNW,337,0.0,0.0,83,0.00,,,0.00,Wunderground v.1.15,2013-04-12 07:32:00,
2013-04-12 02:37:00,34.4,29.8,25.45,NNW,337,0.0,0.0,83,0.00,,,0.00,Wunderground v.1.15,2013-04-12 07:37:00,
2013-04-12 02:42:00,34.4,29.8,25.45,NNW,337,0.0,0.0,83,0.00,,,0.00,Wunderground v.1.15,2013-04-12 07:42:00,
2013-04-12 02:47:00,34.4,29.8,25.45,NNW,337,0.0,0.0,83,0.00,,,0.00,Wunderground v.1.15,2013-04-12 07:47:00,
2013-04-12 02:52:00,34.4,29.8,25.45,NNW,337,0.0,0.0,83,0.00,,,0.00,Wunderground v.1.15,2013-04-12 07:52:00,
2013-04-12 02:57:00,34.4,29.8,25.45,NNW,337,0.0,0.0,83,0.00,,,0.00,Wunderground v.1.15,2013-04-12 07:57:00,
2013-04-12 03:02:00,34.4,30.1,25.45,NNW,337,0.0,0.0,84,0.00,,,0.00,Wunderground v.1.15,2013-04-12 08:02:00,
2013-04-12 03:07:00,34.4,30.1,25.45,NNW,337,0.0,0.0,84,0.00,,,0.00,Wunderground v.1.15,2013-04-12 08:07:00,
2013-04-12 03:12:00,34.4,30.1,25.45,NNW,337,0.0,0.0,84,0.00,,,0.00,Wunderground v.1.15,2013-04-12 08:12:00,
2013-04-12 03:17:00,34.3,30.0,25.45,NNW,337,0.0,0.0,84,0.00,,,0.00,Wunderground v.1.15,2013-04-12 08:17:00,
2013-04-12 03:22:00,34.3,30.0,25.45,NNW,337,0.0,0.0,84,0.00,,,0.00,Wunderground v.1.15,2013-04-12 08:22:00,
2013-04-12 03:27:00,34.2,29.9,25.45,NNW,337,0.0,0.0,84,0.00,,,0.00,Wunderground v.1.15,2013-04-12 08:27:00,
2013-04-12 03:33:00,34.1,29.8,25.45,NNW,337,0.0,0.0,84,0.00,,,0.00,Wunderground v.1.15,2013-04-12 08:33:00,
2013-04-12 03:38:00,34.1,29.8,25.45,NNW,337,0.0,0.0,84,0.00,,,0.00,Wunderground v.1.15,2013-04-12 08:38:00,
2013-04-12 03:43:00,34.1,30.1,25.45,NNW,337,0.0,0.0,85,0.00,,,0.00,Wunderground v.1.15,2013-04-12 08:43:00,
2013-04-12 03:48:00,34.0,30.0,25.45,NNW,337,0.0,0.0,85,0.00,,,0.00,Wunderground v.1.15,2013-04-12 08:48:00,
2013-04-12 03:53:00,34.0,30.0,25.45,NNW,337,0.0,0.0,85,0.00,,,0.00,Wunderground v.1.15,2013-04-12 08:53:00,
2013-04-12 03:58:00,33.9,29.9,25.45,NNW,337,0.0,0.0,85,0.00,,,0.00,Wunderground v.1.15,2013-04-12 08:58:00,
2013-04-12 04:03:00,33.9,29.9,25.45,NNW,337,0.0,0.0,85,0.00,,,0.00,Wunderground v.1.15,2013-04-12 09:03:00,
2013-04-12 04:08:00,33.8,29.8,25.45,NNW,337,0.0,0.0,85,0.00,,,0.00,Wunderground v.1.15,2013-04-12 09:08:00,
2013-04-12 04:13:00,33.8,29.8,25.45,NNW,337,0.0,0.0,85,0.00,,,0.00,Wunderground v.1.15,2013-04-12 09:13:00,
2013-04-12 04:18:00,33.7,29.7,25.45,NNW,337,0.0,0.0,85,0.00,,,0.00,Wunderground v.1.15,2013-04-12 09:18:00,
2013-04-12 04:23:00,33.7,29.7,25.45,NNW,337,0.0,0.0,85,0.00,,,0.00,Wunderground v.1.15,2013-04-12 09:23:00,
2013-04-12 04:28:00,33.7,29.7,25.45,NNW,337,0.0,0.0,85,0.00,,,0.00,Wunderground v.1.15,2013-04-12 09:28:00,
2013-04-12 04:33:00,33.7,29.7,25.45,NNW,337,0.0,0.0,85,0.00,,,0.00,Wunderground v.1.15,2013-04-12 09:33:00,
2013-04-12 04:38:00,33.8,30.1,25.45,NNW,337,0.0,0.0,86,0.00,,,0.00,Wunderground v.1.15,2013-04-12 09:38:00,
2013-04-12 04:43:00,33.8,30.1,25.45,NNW,337,0.0,0.0,86,0.00,,,0.00,Wunderground v.1.15,2013-04-12 09:43:00,
2013-04-12 04:48:00,33.8,30.1,25.45,NNW,337,0.0,0.0,86,0.00,,,0.00,Wunderground v.1.15,2013-04-12 09:48:00,
2013-04-12 04:53:00,33.8,30.1,25.45,NNW,337,0.0,0.0,86,0.00,,,0.00,Wunderground v.1.15,2013-04-12 09:53:00,
2013-04-12 04:58:00,33.8,30.1,25.45,NNW,337,0.0,0.0,86,0.00,,,0.00,Wunderground v.1.15,2013-04-12 09:58:00,
2013-04-12 05:04:00,33.7,30.0,25.45,NNW,337,0.0,0.0,86,0.00,,,0.00,Wunderground v.1.15,2013-04-12 10:04:00,
2013-04-12 05:09:00,33.7,30.0,24.69,NNW,337,0.0,0.0,86,0.00,,,0.00,Wunderground v.1.15,2013-04-12 10:09:00,
2013-04-12 05:14:00,33.7,30.0,24.69,NNW,337,0.0,0.0,86,0.00,,,0.00,Wunderground v.1.15,2013-04-12 10:14:00,
2013-04-12 05:19:00,33.8,30.3,24.69,NNW,337,0.0,1.0,87,0.00,,,0.00,Wunderground v.1.15,2013-04-12 10:19:00,
2013-04-12 05:24:00,33.8,30.3,24.69,NNW,337,0.0,0.0,87,0.00,,,0.00,Wunderground v.1.15,2013-04-12 10:24:00,
2013-04-12 05:29:00,33.9,30.4,24.69,NNW,337,0.0,0.0,87,0.00,,,0.00,Wunderground v.1.15,2013-04-12 10:29:00,
2013-04-12 05:34:00,33.9,30.4,24.69,NNW,337,0.0,0.0,87,0.00,,,0.00,Wunderground v.1.15,2013-04-12 10:34:00,
2013-04-12 05:39:00,34.0,30.5,27.08,NNW,337,0.0,0.0,87,0.00,,,0.00,Wunderground v.1.15,2013-04-12 10:39:00,
2013-04-12 05:44:00,34.1,30.6,27.08,NNW,337,0.0,0.0,87,0.00,,,0.00,Wunderground v.1.15,2013-04-12 10:44:00,
2013-04-12 05:49:00,34.2,30.7,27.08,NNW,337,0.0,1.0,87,0.00,,,0.00,Wunderground v.1.15,2013-04-12 10:49:00,
2013-04-12 05:54:00,34.4,30.9,27.08,NNW,337,0.0,0.0,87,0.00,,,0.00,Wunderground v.1.15,2013-04-12 10:54:00,
2013-04-12 05:59:00,34.4,30.9,27.08,NNW,337,0.0,0.0,87,0.00,,,0.00,Wunderground v.1.15,2013-04-12 10:59:00,
2013-04-12 06:04:00,34.4,30.9,27.08,NNW,337,0.0,0.0,87,0.00,,,0.00,Wunderground v.1.15,2013-04-12 11:04:00,
2013-04-12 06:09:00,34.6,31.1,26.17,NNW,337,0.0,1.0,87,0.00,,,0.00,Wunderground v.1.15,2013-04-12 11:09:00,
2013-04-12 06:14:00,34.8,31.3,26.17,NNW,337,0.0,0.0,87,0.00,,,0.00,Wunderground v.1.15,2013-04-12 11:14:00,
2013-04-12 06:19:00,35.0,31.5,26.17,NNW,340,2.0,4.0,87,0.00,,,0.00,Wunderground v.1.15,2013-04-12 11:19:00,
2013-04-12 06:24:00,35.2,31.7,26.17,NW,306,0.0,1.0,87,0.00,,,0.00,Wunderground v.1.15,2013-04-12 11:24:00,
2013-04-12 06:29:00,35.2,31.4,26.17,NW,306,0.0,1.0,86,0.00,,,0.00,Wunderground v.1.15,2013-04-12 11:29:00,
2013-04-12 06:34:00,35.3,31.5,26.17,NW,314,0.0,2.0,86,0.00,,,0.00,Wunderground v.1.15,2013-04-12 11:34:00,
2013-04-12 06:39:00,35.4,31.6,26.17,NNW,333,0.0,3.0,86,0.00,,,0.00,Wunderground v.1.15,2013-04-12 11:39:00,
2013-04-12 06:44:00,35.5,31.4,26.17,NNW,333,0.0,0.0,85,0.00,,,0.00,Wunderground v.1.15,2013-04-12 11:44:00,
2013-04-12 06:49:00,35.5,31.4,26.17,NNW,333,0.0,1.0,85,0.00,,,0.00,Wunderground v.1.15,2013-04-12 11:49:00,
2013-04-12 06:54:00,35.5,31.1,26.17,NNW,333,0.0,1.0,84,0.00,,,0.00,Wunderground v.1.15,2013-04-12 11:54:00,
2013-04-12 06:59:00,35.5,31.1,26.17,NNW,333,0.0,1.0,84,0.00,,,0.00,Wunderground v.1.15,2013-04-12 11:59:00,
2013-04-12 07:04:00,35.5,31.1,26.17,NNW,333,0.0,0.0,84,0.00,,,0.00,Wunderground v.1.15,2013-04-12 12:04:00,
2013-04-12 07:09:00,35.5,30.8,26.17,NNW,333,0.0,1.0,83,0.00,,,0.00,Wunderground v.1.15,2013-04-12 12:09:00,
2013-04-12 07:14:00,35.5,30.8,26.17,NNW,333,0.0,0.0,83,0.00,,,0.00,Wunderground v.1.15,2013-04-12 12:14:00,
2013-04-12 07:19:00,35.5,30.8,26.17,NNW,333,0.0,1.0,83,0.00,,,0.00,Wunderground v.1.15,2013-04-12 12:19:00,
2013-04-12 07:24:00,35.5,30.8,26.17,NNW,333,0.0,0.0,83,0.00,,,0.00,Wunderground v.1.15,2013-04-12 12:24:00,
2013-04-12 07:29:00,35.7,31.0,26.17,NNW,333,0.0,0.0,83,0.00,,,0.00,Wunderground v.1.15,2013-04-12 12:29:00,
2013-04-12 07:34:00,36.2,31.5,26.17,NNW,333,0.0,0.0,83,0.00,,,0.00,Wunderground v.1.15,2013-04-12 12:34:00,
2013-04-12 07:39:00,37.3,32.3,26.17,NNW,333,0.0,0.0,82,0.00,,,0.00,Wunderground v.1.15,2013-04-12 12:39:00,
2013-04-12 07:44:00,38.3,32.7,26.17,NNW,333,0.0,0.0,80,0.00,,,0.00,Wunderground v.1.15,2013-04-12 12:44:00,
2013-04-12 07:49:00,39.1,32.8,26.17,NNW,333,0.0,0.0,78,0.00,,,0.00,Wunderground v.1.15,2013-04-12 12:49:00,
2013-04-12 07:55:00,39.8,32.5,26.17,NNW,333,0.0,0.0,75,0.00,,,0.00,Wunderground v.1.15,2013-04-12 12:55:00,
2013-04-12 08:00:00,40.5,32.9,26.17,NNW,333,0.0,0.0,74,0.00,,,0.00,Wunderground v.1.15,2013-04-12 13:00:00,
2013-04-12 08:05:00,41.1,32.4,26.17,NNW,333,0.0,1.0,71,0.00,,,0.00,Wunderground v.1.15,2013-04-12 13:05:00,
2013-04-12 08:10:00,41.7,32.3,26.17,NNW,347,0.0,4.0,69,0.00,,,0.00,Wunderground v.1.15,2013-04-12 13:10:00,
2013-04-12 08:15:00,42.0,31.8,26.17,North,349,0.0,2.0,67,0.00,,,0.00,Wunderground v.1.15,2013-04-12 13:15:00,
2013-04-12 08:20:00,42.5,31.9,26.17,NNW,343,0.0,4.0,66,0.00,,,0.00,Wunderground v.1.15,2013-04-12 13:20:00,
2013-04-12 08:25:00,43.0,32.0,26.17,NNW,330,0.0,3.0,65,0.00,,,0.00,Wunderground v.1.15,2013-04-12 13:25:00,
2013-04-12 08:30:00,43.7,33.5,26.17,NNW,330,0.0,3.0,67,0.00,,,0.00,Wunderground v.1.15,2013-04-12 13:30:00,
2013-04-12 08:35:00,44.1,32.3,26.17,NW,304,0.0,2.0,63,0.00,,,0.00,Wunderground v.1.15,2013-04-12 13:35:00,
2013-04-12 08:40:00,44.5,32.7,26.17,North,355,0.0,0.0,63,0.00,,,0.00,Wunderground v.1.15,2013-04-12 13:40:00,
2013-04-12 08:45:00,44.7,32.1,26.17,North,360,1.0,2.0,61,0.00,,,0.00,Wunderground v.1.15,2013-04-12 13:45:00,
2013-04-12 08:50:00,45.0,32.8,26.17,North,5,0.0,3.0,62,0.00,,,0.00,Wunderground v.1.15,2013-04-12 13:50:00,
2013-04-12 08:55:00,45.1,32.0,26.17,NNE,27,0.0,3.0,60,0.00,,,0.00,Wunderground v.1.15,2013-04-12 13:55:00,
2013-04-12 09:00:00,45.7,33.4,26.17,NNE,20,4.0,4.0,62,0.00,,,0.00,Wunderground v.1.15,2013-04-12 14:00:00,
2013-04-12 09:05:00,46.0,32.5,26.17,West,268,1.0,4.0,59,0.00,,,0.00,Wunderground v.1.15,2013-04-12 14:05:00,
2013-04-12 09:10:00,46.6,32.2,26.17,NNW,332,0.0,0.0,57,0.00,,,0.00,Wunderground v.1.15,2013-04-12 14:10:00,
2013-04-12 09:16:00,46.8,32.4,26.17,North,351,2.0,3.0,57,0.00,,,0.00,Wunderground v.1.15,2013-04-12 14:16:00,
2013-04-12 09:21:00,47.1,32.2,26.17,NNW,345,0.0,1.0,56,0.00,,,0.00,Wunderground v.1.15,2013-04-12 14:21:00,
2013-04-12 09:26:00,47.6,33.1,26.17,NNW,344,0.0,2.0,57,0.00,,,0.00,Wunderground v.1.15,2013-04-12 14:26:00,
2013-04-12 09:31:00,48.2,33.2,26.17,North,5,2.0,2.0,56,0.00,,,0.00,Wunderground v.1.15,2013-04-12 14:31:00,
2013-04-12 09:36:00,48.2,31.9,26.17,North,355,2.0,4.0,53,0.00,,,0.00,Wunderground v.1.15,2013-04-12 14:36:00,
2013-04-12 09:41:00,47.8,33.3,26.17,NE,55,1.0,2.0,57,0.00,,,0.00,Wunderground v.1.15,2013-04-12 14:41:00,
2013-04-12 09:45:00,48.3,32.4,26.17,NNE,25,0.0,2.0,54,0.00,,,0.00,Wunderground v.1.15,2013-04-12 14:45:00,
2013-04-12 09:51:00,48.1,33.1,26.17,ENE,59,0.0,2.0,56,0.00,,,0.00,Wunderground v.1.15,2013-04-12 14:51:00,
2013-04-12 09:56:00,48.6,33.1,26.17,North,360,0.0,2.0,55,0.00,,,0.00,Wunderground v.1.15,2013-04-12 14:56:00,
2013-04-12 10:01:00,49.1,33.2,26.17,ESE,114,1.0,1.0,54,0.00,,,0.00,Wunderground v.1.15,2013-04-12 15:01:00,
2013-04-12 10:06:00,49.0,32.6,26.17,East,80,2.0,3.0,53,0.00,,,0.00,Wunderground v.1.15,2013-04-12 15:06:00,
2013-04-12 10:11:00,49.3,33.8,26.17,NE,56,1.0,2.0,55,0.00,,,0.00,Wunderground v.1.15,2013-04-12 15:11:00,
2013-04-12 10:16:00,49.7,33.2,26.17,SE,139,0.0,4.0,53,0.00,,,0.00,Wunderground v.1.15,2013-04-12 15:16:00,
2013-04-12 10:22:00,50.3,33.3,26.17,East,87,0.0,2.0,52,0.00,,,0.00,Wunderground v.1.15,2013-04-12 15:22:00,
2013-04-12 10:27:00,50.5,33.5,26.17,ENE,73,0.0,4.0,52,0.00,,,0.00,Wunderground v.1.15,2013-04-12 15:27:00,
2013-04-12 10:32:00,50.4,32.9,26.17,NE,39,2.0,2.0,51,0.00,,,0.00,Wunderground v.1.15,2013-04-12 15:32:00,
2013-04-12 10:37:00,50.7,33.2,26.17,East,93,1.0,4.0,51,0.00,,,0.00,Wunderground v.1.15,2013-04-12 15:37:00,
2013-04-12 10:42:00,51.2,34.2,26.17,NE,38,2.0,2.0,52,0.00,,,0.00,Wunderground v.1.15,2013-04-12 15:42:00,
2013-04-12 10:47:00,51.5,33.5,26.17,North,355,0.0,3.0,50,0.00,,,0.00,Wunderground v.1.15,2013-04-12 15:47:00,
2013-04-12 10:52:00,51.9,33.3,26.17,North,5,0.0,3.0,49,0.00,,,0.00,Wunderground v.1.15,2013-04-12 15:52:00,
2013-04-12 10:57:00,51.9,33.8,26.17,North,360,1.0,3.0,50,0.00,,,0.00,Wunderground v.1.15,2013-04-12 15:57:00,
2013-04-12 11:02:00,52.1,34.5,26.17,NE,35,1.0,2.0,51,0.00,,,0.00,Wunderground v.1.15,2013-04-12 16:02:00,
2013-04-12 11:07:00,52.6,34.0,26.17,East,80,1.0,4.0,49,0.00,,,0.00,Wunderground v.1.15,2013-04-12 16:07:00,
2013-04-12 11:12:00,52.0,32.4,26.17,NNW,336,5.0,5.0,47,0.00,,,0.00,Wunderground v.1.15,2013-04-12 16:12:00,
2013-04-12 11:17:00,52.5,33.4,26.17,NNE,29,2.0,5.0,48,0.00,,,0.00,Wunderground v.1.15,2013-04-12 16:17:00,
2013-04-12 11:22:00,52.2,33.6,26.17,ESE,107,2.0,2.0,49,0.00,,,0.00,Wunderground v.1.15,2013-04-12 16:22:00,
2013-04-12 11:27:00,52.6,34.0,26.17,North,355,2.0,5.0,49,0.00,,,0.00,Wunderground v.1.15,2013-04-12 16:27:00,
2013-04-12 11:32:00,52.4,33.8,26.17,East,92,2.0,4.0,49,0.00,,,0.00,Wunderground v.1.15,2013-04-12 16:32:00,
2013-04-12 11:37:00,52.4,33.8,26.17,SE,138,5.0,5.0,49,0.00,,,0.00,Wunderground v.1.15,2013-04-12 16:37:00,
2013-04-12 11:42:00,52.9,34.8,26.17,NNE,24,1.0,4.0,50,0.00,,,0.00,Wunderground v.1.15,2013-04-12 16:42:00,
2013-04-12 11:47:00,53.8,35.1,26.17,NE,56,0.0,4.0,49,0.00,,,0.00,Wunderground v.1.15,2013-04-12 16:47:00,
2013-04-12 11:52:00,54.8,34.9,26.17,NE,42,0.0,2.0,47,0.00,,,0.00,Wunderground v.1.15,2013-04-12 16:52:00,
2013-04-12 11:57:00,54.8,33.8,26.17,NNW,346,0.0,9.0,45,0.00,,,0.00,Wunderground v.1.15,2013-04-12 16:57:00,
2013-04-12 12:02:00,55.3,34.9,26.17,NNW,336,2.0,2.0,46,0.00,,,0.00,Wunderground v.1.15,2013-04-12 17:02:00,
2013-04-12 12:07:00,55.5,35.6,26.17,NNE,14,1.0,5.0,47,0.00,,,0.00,Wunderground v.1.15,2013-04-12 17:07:00,
2013-04-12 12:12:00,55.3,34.3,26.17,ENE,74,0.0,6.0,45,0.00,,,0.00,Wunderground v.1.15,2013-04-12 17:12:00,
2013-04-12 12:17:00,55.5,35.6,26.17,North,349,0.0,6.0,47,0.00,,,0.00,Wunderground v.1.15,2013-04-12 17:17:00,
2013-04-12 12:22:00,56.2,36.2,19.22,NNE,29,1.0,2.0,47,0.00,,,0.00,Wunderground v.1.15,2013-04-12 17:22:00,
2013-04-12 12:27:00,56.3,35.8,19.22,SSE,149,2.0,7.0,46,0.00,,,0.00,Wunderground v.1.15,2013-04-12 17:27:00,
2013-04-12 12:32:00,56.3,35.2,19.22,NW,317,1.0,4.0,45,0.00,,,0.00,Wunderground v.1.15,2013-04-12 17:32:00,
2013-04-12 12:38:00,56.1,34.5,19.22,East,96,0.0,5.0,44,0.00,,,0.00,Wunderground v.1.15,2013-04-12 17:38:00,
2013-04-12 12:43:00,55.9,34.8,19.22,North,355,3.0,4.0,45,0.00,,,0.00,Wunderground v.1.15,2013-04-12 17:43:00,
2013-04-12 12:48:00,56.4,34.7,19.22,ENE,60,1.0,4.0,44,0.00,,,0.00,Wunderground v.1.15,2013-04-12 17:48:00,
2013-04-12 12:53:00,57.3,36.7,19.22,North,5,0.0,2.0,46,0.00,,,0.00,Wunderground v.1.15,2013-04-12 17:53:00,
2013-04-12 12:58:00,57.2,34.9,19.22,ENE,68,2.0,3.0,43,0.00,,,0.00,Wunderground v.1.15,2013-04-12 17:58:00,
2013-04-12 13:03:00,56.6,34.3,19.22,NE,56,0.0,2.0,43,0.00,,,0.00,Wunderground v.1.15,2013-04-12 18:03:00,
2013-04-12 13:09:00,57.4,36.2,19.22,NE,37,0.0,4.0,45,0.00,,,0.00,Wunderground v.1.15,2013-04-12 18:09:00,
2013-04-12 13:15:00,58.1,36.3,19.22,ENE,57,0.0,2.0,44,0.00,,,0.00,Wunderground v.1.15,2013-04-12 18:15:00,
2013-04-12 13:20:00,58.5,36.1,19.22,North,355,0.0,1.0,43,0.00,,,0.00,Wunderground v.1.15,2013-04-12 18:20:00,
2013-04-12 13:25:00,59.0,36.5,19.22,North,355,0.0,4.0,43,0.00,,,0.00,Wunderground v.1.15,2013-04-12 18:25:00,
2013-04-12 14:26:00,60.6,37.4,17.60,SE,136,2.0,2.0,42,0.00,,,0.00,Wunderground v.1.15,2013-04-12 19:26:00,
2013-04-12 14:27:00,60.6,37.4,17.60,ESE,113,0.0,4.0,42,0.00,,,0.00,Wunderground v.1.15,2013-04-12 19:27:00,
2013-04-12 14:32:00,60.4,37.2,17.60,North,350,0.0,1.0,42,0.00,,,0.00,Wunderground v.1.15,2013-04-12 19:32:00,
2013-04-12 14:37:00,60.2,37.0,17.60,SSE,159,5.0,5.0,42,0.00,,,0.00,Wunderground v.1.15,2013-04-12 19:37:00,
2013-04-12 14:42:00,59.7,37.2,17.60,SE,141,2.0,4.0,43,0.00,,,0.00,Wunderground v.1.15,2013-04-12 19:42:00,
2013-04-12 14:47:00,59.7,37.2,18.95,East,92,0.0,4.0,43,0.00,,,0.00,Wunderground v.1.15,2013-04-12 19:47:00,
2013-04-12 14:52:00,60.0,38.0,18.95,ESE,121,0.0,4.0,44,0.00,,,0.00,Wunderground v.1.15,2013-04-12 19:52:00,
2013-04-12 14:57:00,60.0,36.8,18.95,SE,142,2.0,4.0,42,0.00,,,0.00,Wunderground v.1.15,2013-04-12 19:57:00,
2013-04-12 15:02:00,59.5,37.0,18.95,North,5,0.0,1.0,43,0.00,,,0.00,Wunderground v.1.15,2013-04-12 20:02:00,
2013-04-12 15:07:00,59.7,37.7,18.95,NE,46,1.0,4.0,44,0.00,,,0.00,Wunderground v.1.15,2013-04-12 20:07:00,
2013-04-12 15:12:00,59.6,37.1,18.95,East,97,0.0,3.0,43,0.00,,,0.00,Wunderground v.1.15,2013-04-12 20:12:00,
2013-04-12 15:17:00,59.6,36.5,24.38,NE,51,2.0,4.0,42,0.00,,,0.00,Wunderground v.1.15,2013-04-12 20:17:00,
2013-04-12 15:22:00,60.0,38.6,24.38,ENE,58,0.0,1.0,45,0.00,,,0.00,Wunderground v.1.15,2013-04-12 20:22:00,
2013-04-12 15:27:00,60.3,37.1,24.38,North,360,0.0,2.0,42,0.00,,,0.00,Wunderground v.1.15,2013-04-12 20:27:00,
2013-04-12 15:32:00,59.7,37.7,24.38,ENE,60,1.0,2.0,44,0.00,,,0.00,Wunderground v.1.15,2013-04-12 20:32:00,
2013-04-12 15:37:00,59.8,37.8,24.38,ENE,67,2.0,4.0,44,0.00,,,0.00,Wunderground v.1.15,2013-04-12 20:37:00,
2013-04-12 15:42:00,59.4,35.7,24.38,SE,146,1.0,5.0,41,0.00,,,0.00,Wunderground v.1.15,2013-04-12 20:42:00,
2013-04-12 15:48:00,59.1,37.2,24.38,NNW,346,1.0,5.0,44,0.00,,,0.00,Wunderground v.1.15,2013-04-12 20:48:00,
2013-04-12 15:53:00,59.2,36.7,24.38,ENE,57,0.0,2.0,43,0.00,,,0.00,Wunderground v.1.15,2013-04-12 20:53:00,
2013-04-12 15:58:00,59.0,35.9,24.38,NNW,348,1.0,5.0,42,0.00,,,0.00,Wunderground v.1.15,2013-04-12 20:58:00,
2013-04-12 16:03:00,58.4,36.0,24.38,NNE,19,0.0,2.0,43,0.00,,,0.00,Wunderground v.1.15,2013-04-12 21:03:00,
2013-04-12 16:08:00,58.2,36.4,24.38,East,81,3.0,5.0,44,0.00,,,0.00,Wunderground v.1.15,2013-04-12 21:08:00,
2013-04-12 16:13:00,58.1,35.7,24.38,SE,130,1.0,4.0,43,0.00,,,0.00,Wunderground v.1.15,2013-04-12 21:13:00,
2013-04-12 16:18:00,58.2,37.5,24.38,ESE,105,1.0,4.0,46,0.00,,,0.00,Wunderground v.1.15,2013-04-12 21:18:00,
2013-04-12 16:23:00,58.2,36.9,24.38,ENE,59,2.0,2.0,45,0.00,,,0.00,Wunderground v.1.15,2013-04-12 21:23:00,
2013-04-12 16:28:00,58.0,36.8,24.38,ESE,115,0.0,3.0,45,0.00,,,0.00,Wunderground v.1.15,2013-04-12 21:28:00,
2013-04-12 16:33:00,57.9,37.2,24.38,SE,133,4.0,4.0,46,0.00,,,0.00,Wunderground v.1.15,2013-04-12 21:33:00,
2013-04-12 16:38:00,57.8,36.6,24.38,ESE,113,1.0,5.0,45,0.00,,,0.00,Wunderground v.1.15,2013-04-12 21:38:00,
2013-04-12 16:43:00,57.8,37.1,24.38,NNW,344,0.0,1.0,46,0.00,,,0.00,Wunderground v.1.15,2013-04-12 21:43:00,
2013-04-12 16:48:00,57.8,37.1,24.38,North,355,1.0,3.0,46,0.00,,,0.00,Wunderground v.1.15,2013-04-12 21:48:00,
2013-04-12 16:53:00,57.6,36.4,24.38,North,351,0.0,1.0,45,0.00,,,0.00,Wunderground v.1.15,2013-04-12 21:53:00,
2013-04-12 16:58:00,57.4,36.8,24.38,ESE,105,0.0,2.0,46,0.00,,,0.00,Wunderground v.1.15,2013-04-12 21:58:00,
2013-04-12 17:03:00,57.2,36.6,24.38,North,360,0.0,4.0,46,0.00,,,0.00,Wunderground v.1.15,2013-04-12 22:03:00,
2013-04-12 17:08:00,57.0,36.4,25.40,NE,49,1.0,4.0,46,0.00,,,0.00,Wunderground v.1.15,2013-04-12 22:08:00,
2013-04-12 17:13:00,56.8,37.3,25.40,NNW,348,1.0,1.0,48,0.00,,,0.00,Wunderground v.1.15,2013-04-12 22:13:00,
2013-04-12 17:18:00,56.7,36.7,25.40,NNE,12,1.0,3.0,47,0.00,,,0.00,Wunderground v.1.15,2013-04-12 22:18:00,
2013-04-12 17:23:00,56.5,36.5,26.11,NNE,20,0.0,1.0,47,0.00,,,0.00,Wunderground v.1.15,2013-04-12 22:23:00,
2013-04-12 17:28:00,56.4,36.4,26.11,ESE,119,0.0,2.0,47,0.00,,,0.00,Wunderground v.1.15,2013-04-12 22:28:00,
2013-04-12 17:33:00,56.3,36.3,26.11,East,79,0.0,3.0,47,0.00,,,0.00,Wunderground v.1.15,2013-04-12 22:33:00,
2013-04-12 17:38:00,56.2,36.8,26.11,ESE,104,0.0,3.0,48,0.00,,,0.00,Wunderground v.1.15,2013-04-12 22:38:00,
2013-04-12 17:43:00,56.2,36.8,24.85,North,355,0.0,1.0,48,0.00,,,0.00,Wunderground v.1.15,2013-04-12 22:43:00,
2013-04-12 17:48:00,56.0,36.6,24.56,SE,135,0.0,1.0,48,0.00,,,0.00,Wunderground v.1.15,2013-04-12 22:48:00,
2013-04-12 17:53:00,56.0,36.0,24.40,ENE,61,0.0,1.0,47,0.00,,,0.00,Wunderground v.1.15,2013-04-12 22:53:00,
2013-04-12 17:58:00,56.0,36.0,24.40,NNW,346,0.0,2.0,47,0.00,,,0.00,Wunderground v.1.15,2013-04-12 22:58:00,
2013-04-12 18:03:00,55.9,35.9,24.16,NE,55,0.0,1.0,47,0.00,,,0.00,Wunderground v.1.15,2013-04-12 23:03:00,
2013-04-12 18:08:00,55.7,36.3,24.16,SE,144,0.0,1.0,48,0.00,,,0.00,Wunderground v.1.15,2013-04-12 23:08:00,
2013-04-12 18:13:00,55.6,36.2,24.16,SE,141,0.0,0.0,48,0.00,,,0.00,Wunderground v.1.15,2013-04-12 23:13:00,
2013-04-12 18:18:00,55.5,36.1,24.16,SE,141,0.0,1.0,48,0.00,,,0.00,Wunderground v.1.15,2013-04-12 23:18:00,
2013-04-12 18:23:00,55.5,37.1,24.16,SE,141,0.0,1.0,50,0.00,,,0.00,Wunderground v.1.15,2013-04-12 23:23:00,
2013-04-12 18:28:00,55.4,36.0,24.16,SE,142,0.0,1.0,48,0.00,,,0.00,Wunderground v.1.15,2013-04-12 23:28:00,
2013-04-12 18:33:00,55.3,36.5,24.16,SE,141,0.0,0.0,49,0.00,,,0.00,Wunderground v.1.15,2013-04-12 23:33:00,
2013-04-12 18:38:00,55.1,36.3,24.16,SE,142,0.0,0.0,49,0.00,,,0.00,Wunderground v.1.15,2013-04-12 23:38:00,
2013-04-12 18:43:00,55.0,36.2,24.16,ENE,78,0.0,1.0,49,0.00,,,0.00,Wunderground v.1.15,2013-04-12 23:43:00,
2013-04-12 18:48:00,54.8,36.5,24.32,ENE,78,0.0,1.0,50,0.00,,,0.00,Wunderground v.1.15,2013-04-12 23:48:00,
2013-04-12 18:53:00,54.6,36.3,24.32,ENE,78,0.0,1.0,50,0.00,,,0.00,Wunderground v.1.15,2013-04-12 23:53:00,
2013-04-12 18:58:00,54.5,36.2,24.53,ENE,78,0.0,1.0,50,0.00,,,0.00,Wunderground v.1.15,2013-04-12 23:58:00,
2013-04-12 19:03:00,54.4,36.1,24.53,ENE,78,0.0,0.0,50,0.00,,,0.00,Wunderground v.1.15,2013-04-13 00:03:00,
2013-04-12 19:08:00,54.2,36.5,24.38,ENE,78,0.0,0.0,51,0.00,,,0.00,Wunderground v.1.15,2013-04-13 00:08:00,
2013-04-12 19:13:00,54.1,36.4,24.41,ENE,78,0.0,0.0,51,0.00,,,0.00,Wunderground v.1.15,2013-04-13 00:13:00,
2013-04-12 19:18:00,53.9,36.7,24.42,ENE,78,0.0,0.0,52,0.00,,,0.00,Wunderground v.1.15,2013-04-13 00:18:00,
2013-04-12 19:23:00,53.7,36.5,24.42,ENE,78,0.0,0.0,52,0.00,,,0.00,Wunderground v.1.15,2013-04-13 00:23:00,
2013-04-12 19:28:00,53.4,36.2,24.35,ENE,78,0.0,0.0,52,0.00,,,0.00,Wunderground v.1.15,2013-04-13 00:28:00,
2013-04-12 19:33:00,53.1,35.9,24.35,ENE,78,0.0,0.0,52,0.00,,,0.00,Wunderground v.1.15,2013-04-13 00:33:00,
2013-04-12 19:38:00,52.9,36.2,24.40,ENE,78,0.0,0.0,53,0.00,,,0.00,Wunderground v.1.15,2013-04-13 00:38:00,
2013-04-12 19:43:00,52.7,36.0,24.46,ENE,78,0.0,0.0,53,0.00,,,0.00,Wunderground v.1.15,2013-04-13 00:43:00,
2013-04-12 19:48:00,52.4,35.8,24.46,ENE,78,0.0,0.0,53,0.00,,,0.00,Wunderground v.1.15,2013-04-13 00:48:00,
2013-04-12 19:53:00,52.1,35.9,24.46,ENE,78,0.0,0.0,54,0.00,,,0.00,Wunderground v.1.15,2013-04-13 00:53:00,
2013-04-12 19:58:00,51.9,35.8,24.46,ENE,78,0.0,0.0,54,0.00,,,0.00,Wunderground v.1.15,2013-04-13 00:58:00,
2013-04-12 20:03:00,51.6,35.9,24.46,ENE,78,0.0,0.0,55,0.00,,,0.00,Wunderground v.1.15,2013-04-13 01:03:00,
2013-04-12 20:08:00,51.3,35.7,24.46,ENE,78,0.0,0.0,55,0.00,,,0.00,Wunderground v.1.15,2013-04-13 01:08:00,
2013-04-12 20:13:00,51.0,35.4,24.46,ENE,78,0.0,0.0,55,0.00,,,0.00,Wunderground v.1.15,2013-04-13 01:13:00,
2013-04-12 20:18:00,50.6,35.5,24.46,ENE,78,0.0,0.0,56,0.00,,,0.00,Wunderground v.1.15,2013-04-13 01:18:00,
2013-04-12 20:23:00,50.4,35.3,24.46,ENE,78,0.0,0.0,56,0.00,,,0.00,Wunderground v.1.15,2013-04-13 01:23:00,
2013-04-12 20:28:00,50.1,35.0,24.46,ENE,78,0.0,0.0,56,0.00,,,0.00,Wunderground v.1.15,2013-04-13 01:28:00,
2013-04-12 20:33:00,49.9,34.8,24.46,ENE,78,0.0,0.0,56,0.00,,,0.00,Wunderground v.1.15,2013-04-13 01:33:00,
2013-04-12 20:38:00,49.7,35.1,24.46,ENE,78,0.0,0.0,57,0.00,,,0.00,Wunderground v.1.15,2013-04-13 01:38:00,
2013-04-12 20:43:00,49.5,34.9,24.33,ENE,78,0.0,0.0,57,0.00,,,0.00,Wunderground v.1.15,2013-04-13 01:43:00,
2013-04-12 20:48:00,49.2,34.6,24.33,ENE,78,0.0,0.0,57,0.00,,,0.00,Wunderground v.1.15,2013-04-13 01:48:00,
2013-04-12 20:53:00,49.0,34.4,24.62,ENE,78,0.0,0.0,57,0.00,,,0.00,Wunderground v.1.15,2013-04-13 01:53:00,
2013-04-12 20:58:00,48.7,34.6,24.62,ENE,78,0.0,0.0,58,0.00,,,0.00,Wunderground v.1.15,2013-04-13 01:58:00,
2013-04-12 21:03:00,48.4,34.7,24.62,ENE,78,0.0,0.0,59,0.00,,,0.00,Wunderground v.1.15,2013-04-13 02:03:00,
2013-04-12 21:08:00,48.2,34.5,24.62,ENE,78,0.0,0.0,59,0.00,,,0.00,Wunderground v.1.15,2013-04-13 02:08:00,
2013-04-12 21:13:00,47.9,34.7,24.62,ENE,78,0.0,0.0,60,0.00,,,0.00,Wunderground v.1.15,2013-04-13 02:13:00,
2013-04-12 21:18:00,47.6,34.8,24.62,ENE,78,0.0,0.0,61,0.00,,,0.00,Wunderground v.1.15,2013-04-13 02:18:00,
2013-04-12 21:23:00,47.4,35.0,24.62,ENE,78,0.0,0.0,62,0.00,,,0.00,Wunderground v.1.15,2013-04-13 02:23:00,
2013-04-12 21:28:00,47.2,34.8,24.62,ENE,78,0.0,0.0,62,0.00,,,0.00,Wunderground v.1.15,2013-04-13 02:28:00,
2013-04-12 21:33:00,47.1,34.7,24.62,ENE,78,0.0,0.0,62,0.00,,,0.00,Wunderground v.1.15,2013-04-13 02:33:00,
2013-04-12 21:38:00,46.9,35.4,24.62,ENE,78,0.0,0.0,64,0.00,,,0.00,Wunderground v.1.15,2013-04-13 02:38:00,
2013-04-12 21:43:00,46.8,35.6,24.62,ENE,78,0.0,0.0,65,0.00,,,0.00,Wunderground v.1.15,2013-04-13 02:43:00,
2013-04-12 21:48:00,46.7,35.6,25.75,ENE,78,0.0,0.0,65,0.00,,,0.00,Wunderground v.1.15,2013-04-13 02:48:00,
2013-04-12 21:53:00,46.6,35.5,25.75,ENE,78,0.0,0.0,65,0.00,,,0.00,Wunderground v.1.15,2013-04-13 02:53:00,
2013-04-12 21:58:00,46.5,35.7,25.75,ENE,78,0.0,0.0,66,0.00,,,0.00,Wunderground v.1.15,2013-04-13 02:58:00,
2013-04-12 22:03:00,46.5,36.1,25.75,ENE,78,0.0,0.0,67,0.00,,,0.00,Wunderground v.1.15,2013-04-13 03:03:00,
2013-04-12 22:08:00,46.4,36.0,25.75,ENE,78,0.0,0.0,67,0.00,,,0.00,Wunderground v.1.15,2013-04-13 03:08:00,
2013-04-12 22:13:00,46.3,35.9,25.75,ENE,78,0.0,0.0,67,0.00,,,0.00,Wunderground v.1.15,2013-04-13 03:13:00,
2013-04-12 22:18:00,46.3,35.9,25.75,ENE,78,0.0,0.0,67,0.00,,,0.00,Wunderground v.1.15,2013-04-13 03:18:00,
2013-04-12 22:23:00,46.2,36.2,25.75,ENE,78,0.0,0.0,68,0.00,,,0.00,Wunderground v.1.15,2013-04-13 03:23:00,
2013-04-12 22:28:00,46.2,36.2,25.75,ENE,78,0.0,0.0,68,0.00,,,0.00,Wunderground v.1.15,2013-04-13 03:28:00,
2013-04-12 22:33:00,46.2,36.6,25.75,ENE,78,0.0,0.0,69,0.00,,,0.00,Wunderground v.1.15,2013-04-13 03:33:00,
2013-04-12 22:38:00,46.1,36.5,25.75,ENE,78,0.0,0.0,69,0.00,,,0.00,Wunderground v.1.15,2013-04-13 03:38:00,
2013-04-12 22:43:00,46.1,36.5,25.75,ENE,78,0.0,0.0,69,0.00,,,0.00,Wunderground v.1.15,2013-04-13 03:43:00,
2013-04-12 22:48:00,46.0,36.4,25.75,ENE,78,0.0,0.0,69,0.00,,,0.00,Wunderground v.1.15,2013-04-13 03:48:00,
2013-04-12 22:53:00,45.9,36.3,25.75,ENE,78,0.0,0.0,69,0.00,,,0.00,Wunderground v.1.15,2013-04-13 03:53:00,
2013-04-12 22:58:00,45.9,36.7,25.75,ENE,78,0.0,0.0,70,0.00,,,0.00,Wunderground v.1.15,2013-04-13 03:58:00,
2013-04-12 23:00:00,45.9,36.7,25.75,ENE,78,0.0,0.0,70,0.00,,,0.00,Wunderground v.1.15,2013-04-13 04:00:00,
2013-04-12 23:05:00,45.8,36.6,25.75,ENE,78,0.0,0.0,70,0.00,,,0.00,Wunderground v.1.15,2013-04-13 04:05:00,
2013-04-12 23:10:00,45.7,36.5,25.75,ENE,78,0.0,0.0,70,0.00,,,0.00,Wunderground v.1.15,2013-04-13 04:10:00,
2013-04-12 23:15:00,45.6,36.7,25.75,ENE,78,0.0,0.0,71,0.00,,,0.00,Wunderground v.1.15,2013-04-13 04:15:00,
2013-04-12 23:20:00,45.5,36.6,25.75,ENE,78,0.0,0.0,71,0.00,,,0.00,Wunderground v.1.15,2013-04-13 04:20:00,
2013-04-12 23:25:00,45.4,36.5,25.75,ENE,78,0.0,0.0,71,0.00,,,0.00,Wunderground v.1.15,2013-04-13 04:25:00,
2013-04-12 23:30:00,45.3,36.4,25.75,ENE,78,0.0,0.0,71,0.00,,,0.00,Wunderground v.1.15,2013-04-13 04:30:00,
2013-04-12 23:35:00,45.2,36.4,25.75,ENE,78,0.0,0.0,71,0.00,,,0.00,Wunderground v.1.15,2013-04-13 04:35:00,
2013-04-12 23:40:00,45.1,36.6,25.75,ENE,78,0.0,0.0,72,0.00,,,0.00,Wunderground v.1.15,2013-04-13 04:40:00,
2013-04-12 23:45:00,45.0,36.5,25.75,ENE,78,0.0,0.0,72,0.00,,,0.00,Wunderground v.1.15,2013-04-13 04:45:00,
2013-04-12 23:50:00,45.0,36.5,25.75,ENE,78,0.0,0.0,72,0.00,,,0.00,Wunderground v.1.15,2013-04-13 04:50:00,
2013-04-12 23:55:00,44.9,36.4,25.75,ENE,78,0.0,0.0,72,0.00,,,0.00,Wunderground v.1.15,2013-04-13 04:55:00,